Location: Équennes
(49.7375°N, 1.9622°E)
Time: 09:43:58
(UTC+00:00)

Cosmos 1656 - Pass Details

Date: 02 October 2023
Orbit: 797 x 849 km, 71.1° (Epoch: 10 December)

Event Time Altitude Azimuth Distance (km) Brightness Sun altitude
Rises 23:02:02 0° 329° (NNW) 3,317 7.5 -43.3°
Reaches altitude 10° 23:04:27 10° 327° (NNW) 2,387 6.6 -43.4°
Enters shadow 23:04:59 13° 326° (NW) 2,186 6.3 -43.4°
